Find Beijing-1

NORAD ID: 28890 Int'l Des: 2005-043 Owner: BLMIT Country: CN operational
LEOCIRCULARRETROGRADESSO

Live-Position

3D-Globus wird geladen...

Über Beijing-1

Beschreibung wird geladen...

Nächste Überflüge

Passes for default location (London). Set your location on the main map for personalized predictions.

Höhenverlauf

Loading altitude history...

Zweizeiliger Elementsatz

1 28890U 05043A 26120.29231539 .00000358 00000-0 78362-4 0 9990
2 28890 98.2829 253.2576 0015837 73.0422 287.2515 14.63503529 93649
Epoch: 30. Apr. 2026 • Age: 8 hours

Aktueller Status

Höhe 677.3 km
Geschwindigkeit 7.52 km/s
Subsatellitenpunkt 24.94°N, 161.15°E
Startdatum 27. Okt. 2005
Alter 20.5 years
Typ other

Technische Details

Klassifizierung Payload
Masse 150.00 kg
Trockenmasse 150.00 kg
Gesamtmasse 150.00 kg
Länge 0.90 m
Durchmesser 0.80 m
Spannweite 0.90 m
Form Box
Hersteller SSTL
Bus-Typ SSTL-150
Phasenstatus In Orbit
Besitzer/Staat BLMIT/CN

Most Searched